sat.trackr.live / text

‹ back to catalog

STARLINK-4423

NORAD 53209 · 2022-084W

PAYLOAD ACTIVE UNKNOWN

§ Identity

Operator
Country
US
Launch date
2022-07-22
Launch site
AFWTR
Launch vehicle
Mass (kg)
RCS (m²)

Purposes: comms

External: N2YO · Heavens-Above · Gunter

§ Orbital elements

Epoch: 2026-05-25T02:58:57.489600Z

Period
95.64 min
Inclination
97.4487°
Eccentricity
0.0000291
Mean motion
15.05702557 rev/d
Perigee alt
549.1 km
Apogee alt
549.6 km
Semi-major
6,927.5 km
B*
-5.8699e-4
RAAN
205.1492°
Arg perigee
85.2031°
Mean anomaly
274.9230°
Rev number
21,081

§ Raw data

STARLINK-44231 53209U 22084W   26145.12427650 -.00008530  00000+0 -58699-3 0  99972 53209  97.4487 205.1492 0000291  85.2031 274.9230 15.05702557210810

JSON: /api/v1/satellites/53209 · /tle

For live sub-satellite position, see the globe view (requires WebGL).

§ Visibility from observer

Set your observer location to see the next 7 days of passes ≥ 10°. The values pass through the URL so the page stays shareable.

No JS? Fill the form by hand. The geolocation button needs JavaScript.